Voltar ao catálogo

CZ-6A DEB

AtivoPO
NORAD 54266·DEBRIS·🇨🇳 China

Lançado Nov 11, 2022 de Taiyuan Satellite Launch Center

Loading…

Próximas Passagens (próximas 24 horas)

TLE

AtualizadoSource: Space-Track

Época: Sep 14, 2026, 21:21 UTC

1 54266U 22151H   26257.88994573 -.00000362  00000-0 -41298-3 0  9999
2 54266  98.9830 117.2068 0409191 199.4604 159.0502 13.33368320186867

Acompanhe CZ-6A DEB em tempo real com AllMySat

Download on the App Store